Date String (YYYY-MM-DD hh:mm:ss) UTC,Instrument flags,Ambient pressure (hPa),Sample flow (lpm),Bypass flow (lpm),Sample temperature (°C),Ambient temperature (°C),ASC tube jacket temperature (°C),LED temperature (°C),Box temperature (°C),Sample RH (%),Span deviation,Mass concentration (μg/m³),Mass concentration (μg/m³),Mass concentration (μg/m³)
DateTimeUTC,F1_M11,P_M11,Q1_M11,Q2_M11,T1_M11,T2_M11,T3_M11,T4_M11,T5_M11,U1_M11,ZSPAN_M11,X0_M11,X2_M11,X1_M11
2023-04-04 23:00:00,,0818.6,4.99,0.00,24.1,22.6,00.0,32.5,25.5,10.5,0000.0,0005.58,0003.68,0003.49
2023-04-04 23:01:00,,0818.7,5.00,0.00,24.0,22.4,00.0,32.5,25.4,10.4,0000.0,0006.77,0003.68,0003.47
2023-04-04 23:02:00,,0818.6,5.00,0.00,24.0,22.6,00.0,32.4,25.6,10.4,0000.0,0007.16,0003.64,0003.45
2023-04-04 23:03:00,,0818.6,5.01,0.00,24.2,23.5,00.0,32.4,26.0,10.2,0000.0,0007.06,0003.62,0003.44
2023-04-04 23:04:00,,0818.6,5.01,0.00,24.2,24.0,00.0,32.4,26.1,10.1,0000.0,0006.78,0003.59,0003.43
2023-04-04 23:05:00,,0818.7,5.00,0.00,24.2,23.8,00.0,32.5,25.9,10.0,0000.0,0006.68,0003.58,0003.41
2023-04-04 23:06:00,,0818.5,4.99,0.00,24.2,23.5,00.0,32.5,25.7,10.1,0000.0,0006.61,0003.57,0003.41
2023-04-04 23:07:00,,0818.5,5.00,0.00,24.1,23.2,00.0,32.5,25.6,10.1,0000.0,0006.62,0003.55,0003.40
2023-04-04 23:08:00,,0818.4,5.00,0.00,24.1,22.9,00.0,32.5,25.5,10.1,0000.0,0007.44,0003.56,0003.39
2023-04-04 23:09:00,,0818.4,5.00,0.00,24.1,22.6,00.0,32.5,25.4,10.0,0000.0,0007.51,0003.57,0003.41
2023-04-04 23:10:00,,0818.5,5.01,0.00,24.1,22.7,00.0,32.5,25.6,10.1,0000.0,0007.61,0003.62,0003.42
2023-04-04 23:11:00,,0818.6,5.00,0.00,24.2,23.5,00.0,32.4,26.0,10.1,0000.0,0007.72,0003.62,0003.44
2023-04-04 23:12:00,,0818.7,4.99,0.00,24.3,24.0,00.0,32.4,26.1,10.2,0000.0,0006.81,0003.62,0003.44
2023-04-04 23:13:00,,0818.6,4.99,0.00,24.3,23.8,00.0,32.5,25.9,10.5,0000.0,0006.45,0003.66,0003.46
2023-04-04 23:14:00,,0818.7,5.00,0.00,24.2,23.5,00.0,32.5,25.7,10.6,0000.0,0006.44,0003.68,0003.48
2023-04-04 23:15:00,,0818.7,5.00,0.00,24.2,23.1,00.0,32.5,25.6,10.9,0000.0,0007.39,0003.72,0003.49
2023-04-04 23:16:00,,0818.7,5.00,0.00,24.1,22.8,00.0,32.5,25.5,11.1,0000.0,0007.73,0003.77,0003.51
2023-04-04 23:17:00,,0818.7,4.99,0.00,24.1,22.6,00.0,32.5,25.4,11.2,0000.0,0007.76,0003.78,0003.52
2023-04-04 23:18:00,,0818.7,5.00,0.00,24.0,22.4,00.0,32.5,25.3,11.1,0000.0,0008.50,0003.82,0003.53
2023-04-04 23:19:00,,0818.7,5.02,0.00,24.0,22.5,00.0,32.4,25.5,11.1,0000.0,0008.47,0003.87,0003.56
2023-04-04 23:20:00,,0818.8,4.99,0.00,24.1,23.3,00.0,32.4,25.9,11.0,0000.0,0008.61,0003.88,0003.57
2023-04-04 23:21:00,,0819.0,5.00,0.00,24.2,23.9,00.0,32.4,26.0,11.0,0000.0,0008.61,0003.88,0003.57
2023-04-04 23:22:00,,0818.9,5.00,0.00,24.2,23.7,00.0,32.5,25.9,11.0,0000.0,0008.61,0003.90,0003.58
2023-04-04 23:23:00,,0818.8,4.99,0.00,24.2,23.4,00.0,32.5,25.7,11.1,0000.0,0008.69,0003.91,0003.59
2023-04-04 23:24:00,,0818.9,5.00,0.00,24.1,23.1,00.0,32.5,25.6,11.1,0000.0,0008.73,0003.90,0003.59
2023-04-04 23:25:00,,0818.8,5.00,0.00,24.1,22.8,00.0,32.5,25.5,11.2,0000.0,0008.75,0003.92,0003.60
2023-04-04 23:26:00,,0818.8,5.01,0.00,24.0,22.6,00.0,32.5,25.4,11.1,0000.0,0008.31,0003.93,0003.60
2023-04-04 23:27:00,,0818.8,5.00,0.00,24.0,22.3,00.0,32.5,25.3,11.1,0000.0,0007.88,0003.89,0003.60
2023-04-04 23:28:00,,0818.9,4.99,0.00,24.0,22.3,00.0,32.4,25.4,11.1,0000.0,0007.95,0003.91,0003.60
2023-04-04 23:29:00,,0819.2,5.02,0.00,24.1,23.2,00.0,32.4,25.8,11.1,0000.0,0007.38,0003.93,0003.61
2023-04-04 23:30:00,,0819.0,5.00,0.00,24.2,23.9,00.0,32.4,26.0,11.1,0000.0,0006.75,0003.91,0003.62
2023-04-04 23:31:00,,0819.0,4.99,0.00,24.2,23.8,00.0,32.4,25.8,11.0,0000.0,0006.33,0003.92,0003.63
2023-04-04 23:32:00,,0819.0,5.00,0.00,24.1,23.5,00.0,32.5,25.6,11.0,0000.0,0006.20,0003.92,0003.63
2023-04-04 23:33:00,,0819.0,5.02,0.00,24.1,23.1,00.0,32.5,25.5,11.0,0000.0,0006.01,0003.90,0003.65
2023-04-04 23:34:00,,0819.0,5.00,0.00,24.0,22.8,00.0,32.5,25.5,11.0,0000.0,0006.19,0003.91,0003.66
2023-04-04 23:35:00,,0819.0,5.00,0.00,24.0,22.6,00.0,32.4,25.4,11.0,0000.0,0006.87,0003.92,0003.67
2023-04-04 23:36:00,,0819.1,4.99,0.00,23.9,22.4,00.0,32.4,25.3,11.0,0000.0,0007.28,0003.92,0003.67
2023-04-04 23:37:00,,0819.1,5.00,0.00,23.9,22.2,00.0,32.4,25.2,11.1,0000.0,0007.31,0003.93,0003.69
2023-04-04 23:38:00,,0819.1,5.02,0.00,23.9,22.6,00.0,32.3,25.5,11.1,0000.0,0007.90,0003.97,0003.71
2023-04-04 23:39:00,,0819.3,5.00,0.00,24.1,23.6,00.0,32.3,25.9,11.1,0000.0,0007.99,0004.00,0003.73
2023-04-04 23:40:00,,0819.3,5.00,0.00,24.1,23.9,00.0,32.4,25.9,11.1,0000.0,0008.41,0003.99,0003.74
2023-04-04 23:41:00,,0819.3,5.01,0.00,24.1,23.6,00.0,32.4,25.7,11.1,0000.0,0008.35,0003.98,0003.74
2023-04-04 23:42:00,,0819.3,5.02,0.00,24.1,23.3,00.0,32.4,25.6,11.2,0000.0,0008.41,0004.00,0003.75
2023-04-04 23:43:00,,0819.3,5.00,0.00,24.0,23.0,00.0,32.4,25.5,11.2,0000.0,0008.47,0004.01,0003.75
2023-04-04 23:44:00,,0819.3,4.99,0.00,24.0,22.8,00.0,32.4,25.4,11.2,0000.0,0008.59,0004.02,0003.76
2023-04-04 23:45:00,,0819.3,5.01,0.00,24.0,22.5,00.0,32.4,25.4,11.2,0000.0,0008.51,0004.03,0003.77
2023-04-04 23:46:00,,0819.4,5.01,0.00,23.9,22.3,00.0,32.4,25.3,11.1,0000.0,0007.99,0004.03,0003.77
2023-04-04 23:47:00,,0819.6,4.99,0.00,23.9,22.1,00.0,32.4,25.2,11.2,0000.0,0007.71,0004.04,0003.78
2023-04-04 23:48:00,,0819.4,4.98,0.00,23.8,22.0,00.0,32.3,25.2,11.2,0000.0,0007.73,0004.02,0003.78
2023-04-04 23:49:00,,0819.4,5.00,0.00,23.8,21.9,00.0,32.3,25.1,11.3,0000.0,0007.43,0004.01,0003.79
2023-04-04 23:50:00,,0819.5,5.00,0.00,23.8,22.1,00.0,32.2,25.3,11.3,0000.0,0007.17,0003.99,0003.79
2023-04-04 23:51:00,,0819.8,5.01,0.00,23.9,23.1,00.0,32.2,25.7,11.3,0000.0,0006.38,0004.03,0003.81
2023-04-04 23:52:00,,0819.8,4.98,0.00,24.0,23.7,00.0,32.2,25.8,11.3,0000.0,0006.64,0004.07,0003.82
2023-04-04 23:53:00,,0819.6,4.99,0.00,24.0,23.6,00.0,32.3,25.6,11.3,0000.0,0006.74,0004.09,0003.83
2023-04-04 23:54:00,,0820.2,5.01,0.00,24.0,23.3,00.0,32.3,25.5,11.4,0000.0,0006.70,0004.09,0003.83
2023-04-04 23:55:00,,0820.1,5.01,0.00,23.9,23.0,00.0,32.3,25.4,11.4,0000.0,0006.60,0004.10,0003.84
2023-04-04 23:56:00,,0819.9,4.99,0.00,23.9,22.7,00.0,32.3,25.3,11.5,0000.0,0006.53,0004.10,0003.84
2023-04-04 23:57:00,,0819.7,4.99,0.00,23.8,22.5,00.0,32.3,25.2,11.4,0000.0,0006.57,0004.11,0003.84
2023-04-04 23:58:00,,0819.7,4.99,0.00,23.8,22.3,00.0,32.3,25.2,11.5,0000.0,0006.77,0004.12,0003.85
2023-04-04 23:59:00,,0819.8,5.00,0.00,23.8,22.2,00.0,32.3,25.2,11.5,0000.0,,,
